Time,TemperatureF,DewpointF,PressureIn,WindDirection,WindDirectionDegrees,WindSpeedMPH,WindSpeedGustMPH,Humidity,HourlyPrecipIn,Conditions,Clouds,dailyrainin,SoftwareType,DateUTC
2013-01-18 00:04:00,35.0,29.0,30.01,ESE,122,1.0,4.0,77,0.00,,,0.00,,2013-01-18 05:04:00,
2013-01-18 00:12:00,35.0,29.0,30.01,ESE,122,1.0,4.0,77,0.00,,,0.00,,2013-01-18 05:12:00,
2013-01-18 00:22:00,35.0,28.0,29.98,SE,129,3.0,5.0,76,0.00,,,0.00,,2013-01-18 05:22:00,
2013-01-18 00:33:00,35.0,28.0,29.98,ESE,119,4.0,9.0,74,0.00,,,0.00,,2013-01-18 05:33:00,
2013-01-18 00:42:00,35.0,28.0,29.98,ESE,119,4.0,9.0,74,0.00,,,0.00,,2013-01-18 05:42:00,
2013-01-18 00:53:00,35.0,28.0,30.00,ESE,103,5.0,8.0,74,0.00,,,0.00,,2013-01-18 05:53:00,
2013-01-18 01:02:00,35.0,28.0,30.01,East,91,3.0,8.0,75,0.00,,,0.00,,2013-01-18 06:02:00,
2013-01-18 01:12:00,35.0,28.0,30.01,East,91,3.0,8.0,75,0.00,,,0.00,,2013-01-18 06:12:00,
2013-01-18 01:22:00,35.0,28.0,30.02,ESE,111,3.0,5.0,74,0.00,,,0.00,,2013-01-18 06:22:00,
2013-01-18 01:33:00,35.0,28.0,30.02,SSE,155,3.0,5.0,74,0.00,,,0.00,,2013-01-18 06:33:00,
2013-01-18 01:43:00,35.0,28.0,30.02,SSE,155,3.0,5.0,74,0.00,,,0.00,,2013-01-18 06:43:00,
2013-01-18 01:52:00,35.0,28.0,30.04,ESE,117,3.0,6.0,75,0.00,,,0.00,,2013-01-18 06:52:00,
2013-01-18 02:02:00,35.0,28.0,30.03,ESE,121,4.0,11.0,75,0.00,,,0.00,,2013-01-18 07:02:00,
2013-01-18 02:12:00,35.0,28.0,30.03,ESE,121,4.0,11.0,75,0.00,,,0.00,,2013-01-18 07:12:00,
2013-01-18 02:22:00,35.0,28.0,30.04,SE,125,5.0,9.0,75,0.00,,,0.00,,2013-01-18 07:22:00,
2013-01-18 02:33:00,35.0,28.0,30.05,SE,127,5.0,9.0,75,0.00,,,0.00,,2013-01-18 07:33:00,
2013-01-18 02:42:00,35.0,28.0,30.05,SE,127,5.0,9.0,75,0.00,,,0.00,,2013-01-18 07:42:00,
2013-01-18 02:52:00,35.0,27.0,30.04,ESE,114,5.0,9.0,73,0.00,,,0.00,,2013-01-18 07:52:00,
2013-01-18 03:02:00,35.0,28.0,30.06,ESE,120,6.0,10.0,74,0.00,,,0.00,,2013-01-18 08:02:00,
2013-01-18 03:12:00,35.0,28.0,30.06,ESE,120,6.0,10.0,74,0.00,,,0.00,,2013-01-18 08:12:00,
2013-01-18 03:22:00,34.0,27.0,30.06,ESE,111,4.0,7.0,75,0.00,,,0.00,,2013-01-18 08:22:00,
2013-01-18 03:32:00,34.0,27.0,30.07,ESE,120,3.0,4.0,76,0.00,,,0.00,,2013-01-18 08:32:00,
2013-01-18 03:42:00,34.0,27.0,30.07,ESE,120,3.0,4.0,76,0.00,,,0.00,,2013-01-18 08:42:00,
2013-01-18 03:52:00,34.0,27.0,30.07,ESE,120,3.0,4.0,76,0.00,,,0.00,,2013-01-18 08:52:00,
2013-01-18 04:03:00,34.0,26.0,30.07,ESE,120,5.0,11.0,73,0.00,,,0.00,,2013-01-18 09:03:00,
2013-01-18 04:12:00,34.0,26.0,30.07,ESE,120,5.0,11.0,73,0.00,,,0.00,,2013-01-18 09:12:00,
2013-01-18 04:22:00,34.0,25.0,30.08,ESE,122,11.0,19.0,68,0.00,,,0.00,,2013-01-18 09:22:00,
2013-01-18 04:33:00,34.0,24.0,30.10,SE,124,17.0,28.0,67,0.00,,,0.00,,2013-01-18 09:33:00,
2013-01-18 04:42:00,34.0,24.0,30.10,SE,124,17.0,28.0,67,0.00,,,0.00,,2013-01-18 09:42:00,
2013-01-18 04:52:00,32.0,24.0,30.11,ESE,119,10.0,25.0,71,0.00,,,0.00,,2013-01-18 09:52:00,
2013-01-18 05:03:00,32.0,25.0,30.11,SSE,164,12.0,20.0,74,0.00,,,0.00,,2013-01-18 10:03:00,
2013-01-18 05:12:00,32.0,25.0,30.11,SSE,164,12.0,20.0,74,0.00,,,0.00,,2013-01-18 10:12:00,
2013-01-18 05:22:00,31.0,23.0,30.13,SE,131,9.0,17.0,72,0.00,,,0.00,,2013-01-18 10:22:00,
2013-01-18 05:33:00,31.0,22.0,30.14,South,170,8.0,20.0,70,0.00,,,0.00,,2013-01-18 10:33:00,
2013-01-18 05:43:00,31.0,22.0,30.14,South,170,8.0,20.0,70,0.00,,,0.00,,2013-01-18 10:43:00,
2013-01-18 05:52:00,31.0,21.0,30.16,SE,146,10.0,20.0,66,0.00,,,0.00,,2013-01-18 10:52:00,
2013-01-18 06:03:00,31.0,19.0,30.16,SE,124,14.0,29.0,61,0.00,,,0.00,,2013-01-18 11:03:00,
2013-01-18 06:12:00,31.0,19.0,30.16,SE,124,14.0,29.0,61,0.00,,,0.00,,2013-01-18 11:12:00,
2013-01-18 06:23:00,30.0,22.0,30.19,SSE,150,12.0,22.0,72,0.00,,,0.00,,2013-01-18 11:23:00,
2013-01-18 06:32:00,29.0,20.0,30.20,South,179,10.0,18.0,69,0.00,,,0.00,,2013-01-18 11:32:00,
2013-01-18 06:42:00,29.0,20.0,30.20,South,179,10.0,18.0,69,0.00,,,0.00,,2013-01-18 11:42:00,
2013-01-18 06:53:00,29.0,20.0,30.21,SSE,155,7.0,18.0,68,0.00,,,0.00,,2013-01-18 11:53:00,
2013-01-18 07:03:00,28.0,20.0,30.23,SSW,201,5.0,17.0,70,0.00,,,0.00,,2013-01-18 12:03:00,
2013-01-18 07:12:00,28.0,20.0,30.23,SSW,201,5.0,17.0,70,0.00,,,0.00,,2013-01-18 12:12:00,
2013-01-18 07:23:00,28.0,20.0,30.24,SSE,148,8.0,20.0,72,0.00,,,0.00,,2013-01-18 12:23:00,
2013-01-18 07:33:00,27.0,21.0,30.27,SSE,166,3.0,12.0,77,0.00,,,0.00,,2013-01-18 12:33:00,
2013-01-18 07:43:00,27.0,21.0,30.27,SSE,166,3.0,12.0,77,0.00,,,0.00,,2013-01-18 12:43:00,
2013-01-18 07:53:00,26.0,21.0,30.29,South,190,3.0,13.0,81,0.00,,,0.00,,2013-01-18 12:53:00,
2013-01-18 08:03:00,26.0,21.0,30.30,SSE,160,8.0,14.0,80,0.00,,,0.00,,2013-01-18 13:03:00,
2013-01-18 08:12:00,26.0,21.0,30.30,SSE,160,8.0,14.0,80,0.00,,,0.00,,2013-01-18 13:12:00,
2013-01-18 08:23:00,25.0,19.0,30.32,SE,144,10.0,17.0,78,0.00,,,0.00,,2013-01-18 13:23:00,
2013-01-18 08:33:00,25.0,20.0,30.33,SSE,155,7.0,18.0,80,0.00,,,0.00,,2013-01-18 13:33:00,
2013-01-18 08:43:00,25.0,20.0,30.33,SSE,155,7.0,18.0,80,0.00,,,0.00,,2013-01-18 13:43:00,
2013-01-18 08:53:00,25.0,20.0,30.33,SSE,155,7.0,18.0,80,0.00,,,0.00,,2013-01-18 13:53:00,
2013-01-18 09:03:00,25.0,16.0,30.36,SSE,148,10.0,17.0,69,0.00,,,0.00,,2013-01-18 14:03:00,
2013-01-18 09:12:00,25.0,16.0,30.36,SSE,148,10.0,17.0,69,0.00,,,0.00,,2013-01-18 14:12:00,
2013-01-18 09:23:00,25.0,16.0,30.37,SSE,156,6.0,18.0,68,0.00,,,0.00,,2013-01-18 14:23:00,
2013-01-18 09:34:00,26.0,17.0,30.38,South,179,5.0,15.0,68,0.00,,,0.00,,2013-01-18 14:34:00,
2013-01-18 09:43:00,26.0,17.0,30.38,South,179,5.0,15.0,68,0.00,,,0.00,,2013-01-18 14:43:00,
2013-01-18 09:53:00,26.0,17.0,30.39,SSE,161,7.0,14.0,67,0.00,,,0.00,,2013-01-18 14:53:00,
2013-01-18 10:03:00,26.0,16.0,30.39,SSE,166,8.0,14.0,66,0.00,,,0.00,,2013-01-18 15:03:00,
2013-01-18 10:13:00,26.0,16.0,30.39,SSE,166,8.0,14.0,66,0.00,,,0.00,,2013-01-18 15:13:00,
2013-01-18 10:23:00,25.0,17.0,30.41,SSE,151,6.0,12.0,70,0.00,,,0.00,,2013-01-18 15:23:00,
2013-01-18 10:34:00,25.0,17.0,30.42,South,173,6.0,10.0,72,0.00,,,0.00,,2013-01-18 15:34:00,
2013-01-18 10:43:00,25.0,17.0,30.42,South,173,6.0,10.0,72,0.00,,,0.00,,2013-01-18 15:43:00,
2013-01-18 10:54:00,26.0,17.0,30.42,ESE,117,5.0,10.0,68,0.00,,,0.00,,2013-01-18 15:54:00,
2013-01-18 11:03:00,27.0,15.0,30.43,SE,132,5.0,12.0,61,0.00,,,0.00,,2013-01-18 16:03:00,
2013-01-18 11:13:00,27.0,15.0,30.43,SE,132,5.0,12.0,61,0.00,,,0.00,,2013-01-18 16:13:00,
2013-01-18 11:23:00,27.0,12.0,30.42,SE,143,8.0,14.0,53,0.00,,,0.00,,2013-01-18 16:23:00,
2013-01-18 11:33:00,27.0,11.0,30.42,SSE,148,8.0,14.0,51,0.00,,,0.00,,2013-01-18 16:33:00,
2013-01-18 11:43:00,27.0,11.0,30.42,SSE,148,8.0,14.0,51,0.00,,,0.00,,2013-01-18 16:43:00,
2013-01-18 11:53:00,27.0,11.0,30.42,SE,143,7.0,16.0,50,0.00,,,0.00,,2013-01-18 16:53:00,
2013-01-18 12:03:00,28.0,13.0,30.42,East,89,6.0,10.0,52,0.00,,,0.00,,2013-01-18 17:03:00,
2013-01-18 12:13:00,28.0,13.0,30.42,East,89,6.0,10.0,52,0.00,,,0.00,,2013-01-18 17:13:00,
2013-01-18 12:23:00,28.0,13.0,30.42,East,89,6.0,10.0,52,0.00,,,0.00,,2013-01-18 17:23:00,
2013-01-18 12:33:00,27.0,10.0,30.41,ESE,118,5.0,18.0,49,0.00,,,0.00,,2013-01-18 17:33:00,
2013-01-18 12:43:00,27.0,10.0,30.41,ESE,118,5.0,18.0,49,0.00,,,0.00,,2013-01-18 17:43:00,
2013-01-18 12:53:00,27.0,11.0,30.40,SE,131,8.0,13.0,50,0.00,,,0.00,,2013-01-18 17:53:00,
2013-01-18 13:03:00,27.0,11.0,30.41,SE,136,6.0,15.0,50,0.00,,,0.00,,2013-01-18 18:03:00,
2013-01-18 13:13:00,27.0,11.0,30.41,SE,136,6.0,15.0,50,0.00,,,0.00,,2013-01-18 18:13:00,
2013-01-18 13:23:00,28.0,11.0,30.40,SE,139,8.0,15.0,49,0.00,,,0.00,,2013-01-18 18:23:00,
2013-01-18 13:33:00,29.0,13.0,30.40,North,354,1.0,10.0,51,0.00,,,0.00,,2013-01-18 18:33:00,
2013-01-18 13:43:00,29.0,13.0,30.40,North,354,1.0,10.0,51,0.00,,,0.00,,2013-01-18 18:43:00,
2013-01-18 13:52:00,29.0,11.0,30.40,East,101,7.0,12.0,46,0.00,,,0.00,,2013-01-18 18:52:00,
2013-01-18 14:03:00,28.0,10.0,30.41,ESE,104,5.0,12.0,47,0.00,,,0.00,,2013-01-18 19:03:00,
2013-01-18 14:13:00,28.0,10.0,30.41,ESE,104,5.0,12.0,47,0.00,,,0.00,,2013-01-18 19:13:00,
2013-01-18 14:23:00,28.0,8.0,30.40,SE,134,6.0,13.0,43,0.00,,,0.00,,2013-01-18 19:23:00,
2013-01-18 14:33:00,29.0,9.0,30.41,SE,132,4.0,11.0,43,0.00,,,0.00,,2013-01-18 19:33:00,
2013-01-18 14:43:00,29.0,9.0,30.41,SE,132,4.0,11.0,43,0.00,,,0.00,,2013-01-18 19:43:00,
2013-01-18 14:52:00,29.0,12.0,30.40,ENE,58,5.0,10.0,49,0.00,,,0.00,,2013-01-18 19:52:00,
2013-01-18 15:03:00,29.0,11.0,30.40,East,97,8.0,12.0,46,0.00,,,0.00,,2013-01-18 20:03:00,
2013-01-18 15:13:00,29.0,11.0,30.40,East,97,8.0,12.0,46,0.00,,,0.00,,2013-01-18 20:13:00,
2013-01-18 15:23:00,29.0,11.0,30.41,East,89,5.0,12.0,47,0.00,,,0.00,,2013-01-18 20:23:00,
2013-01-18 15:33:00,29.0,11.0,30.41,ESE,111,6.0,10.0,46,0.00,,,0.00,,2013-01-18 20:33:00,
2013-01-18 15:43:00,29.0,11.0,30.41,ESE,111,6.0,10.0,46,0.00,,,0.00,,2013-01-18 20:43:00,
2013-01-18 15:53:00,30.0,11.0,30.42,ESE,114,6.0,9.0,45,0.00,,,0.00,,2013-01-18 20:53:00,
2013-01-18 16:03:00,30.0,11.0,30.42,East,84,6.0,9.0,45,0.00,,,0.00,,2013-01-18 21:03:00,
2013-01-18 16:13:00,30.0,11.0,30.42,East,84,6.0,9.0,45,0.00,,,0.00,,2013-01-18 21:13:00,
2013-01-18 16:23:00,30.0,11.0,30.42,ENE,77,6.0,11.0,45,0.00,,,0.00,,2013-01-18 21:23:00,
2013-01-18 16:33:00,29.0,10.0,30.42,ENE,65,7.0,12.0,45,0.00,,,0.00,,2013-01-18 21:33:00,
2013-01-18 16:43:00,29.0,10.0,30.42,ENE,65,7.0,12.0,45,0.00,,,0.00,,2013-01-18 21:43:00,
2013-01-18 16:52:00,29.0,10.0,30.43,East,84,6.0,10.0,44,0.00,,,0.00,,2013-01-18 21:52:00,
2013-01-18 17:03:00,29.0,10.0,30.42,ENE,77,7.0,12.0,45,0.00,,,0.00,,2013-01-18 22:03:00,
2013-01-18 17:12:00,29.0,10.0,30.42,ENE,77,7.0,12.0,45,0.00,,,0.00,,2013-01-18 22:12:00,
2013-01-18 17:23:00,29.0,11.0,30.42,East,94,5.0,9.0,47,0.00,,,0.00,,2013-01-18 22:23:00,
2013-01-18 17:33:00,28.0,11.0,30.42,East,95,6.0,9.0,49,0.00,,,0.00,,2013-01-18 22:33:00,
2013-01-18 17:43:00,28.0,11.0,30.42,East,95,6.0,9.0,49,0.00,,,0.00,,2013-01-18 22:43:00,
2013-01-18 17:52:00,28.0,12.0,30.43,ENE,58,4.0,6.0,50,0.00,,,0.00,,2013-01-18 22:52:00,
2013-01-18 18:03:00,27.0,11.0,30.43,NE,55,4.0,5.0,50,0.00,,,0.00,,2013-01-18 23:03:00,
2013-01-18 18:12:00,27.0,11.0,30.43,NE,55,4.0,5.0,50,0.00,,,0.00,,2013-01-18 23:12:00,
2013-01-18 18:23:00,27.0,11.0,30.44,NE,45,3.0,6.0,50,0.00,,,0.00,,2013-01-18 23:23:00,
2013-01-18 18:33:00,27.0,11.0,30.44,ENE,70,3.0,5.0,50,0.00,,,0.00,,2013-01-18 23:33:00,
2013-01-18 18:43:00,27.0,11.0,30.44,ENE,70,3.0,5.0,50,0.00,,,0.00,,2013-01-18 23:43:00,
2013-01-18 18:52:00,27.0,11.0,30.43,ENE,64,1.0,3.0,51,0.00,,,0.00,,2013-01-18 23:52:00,
2013-01-18 19:03:00,27.0,11.0,30.43,NE,41,1.0,2.0,50,0.00,,,0.00,,2013-01-19 00:03:00,
2013-01-18 19:12:00,27.0,11.0,30.43,NE,41,1.0,2.0,50,0.00,,,0.00,,2013-01-19 00:12:00,
2013-01-18 19:23:00,26.0,11.0,30.45,NE,39,2.0,3.0,53,0.00,,,0.00,,2013-01-19 00:23:00,
2013-01-18 19:33:00,26.0,12.0,30.43,NW,321,2.0,4.0,56,0.00,,,0.00,,2013-01-19 00:33:00,
2013-01-18 19:43:00,26.0,12.0,30.43,NW,321,2.0,4.0,56,0.00,,,0.00,,2013-01-19 00:43:00,
2013-01-18 19:53:00,26.0,13.0,30.43,NNW,345,2.0,4.0,57,0.00,,,0.00,,2013-01-19 00:53:00,
2013-01-18 20:03:00,26.0,14.0,30.43,NW,323,2.0,4.0,60,0.00,,,0.00,,2013-01-19 01:03:00,
2013-01-18 20:12:00,26.0,14.0,30.43,NW,323,2.0,4.0,60,0.00,,,0.00,,2013-01-19 01:12:00,
2013-01-18 20:23:00,26.0,14.0,30.42,North,349,3.0,6.0,59,0.00,,,0.00,,2013-01-19 01:23:00,
2013-01-18 20:33:00,26.0,14.0,30.43,NE,47,4.0,7.0,60,0.00,,,0.00,,2013-01-19 01:33:00,
2013-01-18 20:43:00,26.0,14.0,30.43,NE,47,4.0,7.0,60,0.00,,,0.00,,2013-01-19 01:43:00,
2013-01-18 20:52:00,26.0,16.0,30.43,NNE,32,3.0,5.0,64,0.00,,,0.00,,2013-01-19 01:52:00,
2013-01-18 21:03:00,26.0,15.0,30.42,NNW,330,5.0,8.0,62,0.00,,,0.00,,2013-01-19 02:03:00,
2013-01-18 21:12:00,26.0,15.0,30.42,NNW,330,5.0,8.0,62,0.00,,,0.00,,2013-01-19 02:12:00,
2013-01-18 21:23:00,26.0,14.0,30.41,NNW,330,4.0,10.0,60,0.00,,,0.00,,2013-01-19 02:23:00,
2013-01-18 21:33:00,26.0,12.0,30.41,NW,319,7.0,11.0,56,0.00,,,0.00,,2013-01-19 02:33:00,
2013-01-18 21:43:00,26.0,12.0,30.41,NW,319,7.0,11.0,56,0.00,,,0.00,,2013-01-19 02:43:00,
2013-01-18 21:53:00,26.0,13.0,30.41,ENE,62,3.0,6.0,58,0.00,,,0.00,,2013-01-19 02:53:00,
2013-01-18 22:03:00,26.0,14.0,30.41,NNW,339,2.0,5.0,60,0.00,,,0.00,,2013-01-19 03:03:00,
2013-01-18 22:12:00,26.0,14.0,30.41,NNW,339,2.0,5.0,60,0.00,,,0.00,,2013-01-19 03:12:00,
2013-01-18 22:23:00,26.0,14.0,30.40,North,1,5.0,8.0,60,0.00,,,0.00,,2013-01-19 03:23:00,
2013-01-18 22:33:00,26.0,14.0,30.40,NNW,337,5.0,7.0,60,0.00,,,0.00,,2013-01-19 03:33:00,
2013-01-18 22:43:00,26.0,14.0,30.40,NNW,337,5.0,7.0,60,0.00,,,0.00,,2013-01-19 03:43:00,
2013-01-18 22:52:00,26.0,14.0,30.40,NNE,23,4.0,7.0,61,0.00,,,0.00,,2013-01-19 03:52:00,
2013-01-18 23:03:00,26.0,14.0,30.39,NNW,340,3.0,5.0,61,0.00,,,0.00,,2013-01-19 04:03:00,
2013-01-18 23:12:00,26.0,14.0,30.39,NNW,340,3.0,5.0,61,0.00,,,0.00,,2013-01-19 04:12:00,
2013-01-18 23:22:00,26.0,14.0,30.39,NNW,340,3.0,5.0,61,0.00,,,0.00,,2013-01-19 04:22:00,
2013-01-18 23:33:00,26.0,15.0,30.37,NNW,342,3.0,5.0,63,0.00,,,0.00,,2013-01-19 04:33:00,
2013-01-18 23:42:00,26.0,15.0,30.37,NNW,342,3.0,5.0,63,0.00,,,0.00,,2013-01-19 04:42:00,
2013-01-18 23:53:00,25.0,14.0,30.37,NNE,20,4.0,6.0,63,0.00,,,0.00,,2013-01-19 04:53:00,